GW3496 Weather Reports


time (UTC)temp
F
wind
direction
speed
knots
gust
knots
rain 1hr
in
rain 24hr
in
rain mn
in
humidity
%
barometer
mb
20260906163051 81 50 4.3 10.4 0.00 0.29 0.01 57 1013.5
20260906161557 80 22 2.6 8.7 0.00 0.29 0.01 61 1013.5
20260906160044 79 96 2.6 7.8 0.00 0.29 0.01 61 1013.8
20260906154554 79 45 1.7 7.0 0.00 0.29 0.01 62 1013.8
20260906153054 78 86 0.9 7.8 0.00 0.29 0.01 63 1013.8
20260906151539 77 131 1.7 7.8 0.00 0.29 0.01 65 1013.7
20260906150059 77 53 0.0 7.8 0.00 0.29 0.01 66 1013.6
20260906144602 76 113 2.6 8.7 0.00 0.29 0.01 68 1013.5
20260906143053 76 87 3.5 7.8 0.00 0.29 0.01 70 1013.4
20260906141551 75 59 1.7 5.2 0.00 0.29 0.01 72 1013.4
20260906140058 74 35 1.7 4.3 0.00 0.29 0.01 74 1013.2
20260906134601 73 78 0.0 3.5 0.00 0.29 0.01 76 1012.9
20260906133058 72 31 3.5 7.8 0.00 0.29 0.01 77 1013.4
20260906131549 71 35 5.2 8.7 0.00 0.29 0.01 79 1013.0
20260906130059 70 67 5.2 7.8 0.00 0.29 0.01 80 1013.0
20260906124553 70 13 0.9 7.8 0.00 0.29 0.01 82 1012.7
20260906123054 69 333 0.9 7.0 0.00 0.29 0.01 84 1012.9
20260906121556 68 325 1.7 4.3 0.00 0.29 0.01 85 1012.6
20260906120050 67 45 0.9 7.0 0.00 0.29 0.01 86 1012.1
20260906114607 67 355 1.7 4.3 0.00 0.29 0.01 88 1012.5
20260906113053 66 355 0.9 4.3 0.00 0.29 0.01 89 1012.1
20260906111548 66 279 0.9 5.2 0.00 0.29 0.01 89 1012.0
20260906110049 66 360 2.6 7.0 0.00 0.29 0.01 89 1011.7
20260906104556 66 32 1.7 7.0 0.00 0.29 0.01 90 1011.4
20260906103053 66 326 2.6 5.2 0.00 0.29 0.01 91 1011.4
20260906101552 67 326 0.9 7.0 0.00 0.29 0.01 92 1010.9
20260906100049 67 5 2.6 4.3 0.00 0.29 0.01 92 1010.8
20260906094554 67 355 2.6 4.3 0.00 0.29 0.01 93 1011.1
20260906093054 67 26 1.7 4.3 0.00 0.29 0.01 93 1011.0
20260906091550 68 347 0.0 2.6 0.01 0.29 0.01 94 1010.7
20260906090108 68 13 1.7 3.5 0.01 0.29 0.01 94 1010.4
20260906084556 68 13 1.7 4.3 0.01 0.29 0.01 94 1010.3
20260906083059 69 11 1.7 3.5 0.00 0.28 0.00 94 1010.4
20260906081557 69 360 0.0 0.0 0.00 0.28 0.00 95 1010.2
20260906080050 69 352 0.9 2.6 0.00 0.28 0.00 95 1010.1
20260906074607 70 14 0.0 0.0 0.00 0.28 0.00 95 1009.9
20260906073053 70 355 0.0 2.6 0.00 0.28 0.00 95 1009.9
20260906071550 70 19 1.7 3.5 0.00 0.28 0.00 95 1010.0
20260906070051 70 21 0.9 2.6 0.00 0.28 0.00 95 1010.0
20260906064558 70 30 1.7 2.6 0.00 0.28 0.00 95 1010.1
20260906063055 70 345 0.0 2.6 0.00 0.28 0.00 95 1010.3
20260906061559 71 346 0.0 3.5 0.00 0.28 0.00 95 1010.2
20260906054600 71 348 0.0 0.0 0.00 0.28 0.00 95 1010.2
20260906053101 71 348 0.0 0.0 0.00 0.28 0.00 95 1010.3
20260906051600 71 348 0.0 0.0 0.00 0.28 0.00 95 1010.5
20260906050059 71 348 0.0 0.0 0.00 0.28 0.00 94 1010.2
20260906044556 71 5 0.0 2.6 0.00 0.28 0.00 94 1010.3
20260906043035 72 348 0.9 2.6 0.01 0.28 0.00 94 1010.3
20260906041542 72 316 0.0 1.7 0.01 0.28 0.00 94 1010.2
20260906040042 72 344 1.7 3.5 0.01 0.28 0.00 94 1010.2
20260906034540 72 5 1.7 3.5 0.01 0.28 0.28 94 1010.4
20260906033046 73 24 0.0 0.0 0.00 0.26 0.26 94 1010.4
20260906031539 73 355 0.0 0.0 0.00 0.26 0.26 93 1010.4
20260906030041 73 87 0.0 0.0 0.00 0.26 0.26 93 1010.6
20260906024541 73 360 0.0 2.6 0.00 0.26 0.26 93 1010.2
20260906023043 73 307 0.9 4.3 0.00 0.26 0.26 93 1010.3
20260906021539 73 281 1.7 4.3 0.00 0.26 0.26 93 1010.3
20260906020042 74 288 0.0 2.6 0.00 0.26 0.26 92 1010.1
20260906014539 74 355 0.0 3.5 0.00 0.26 0.26 92 1010.2
20260906013042 74 313 1.7 3.5 0.01 0.26 0.26 92 1009.9
20260906011544 74 290 0.0 0.0 0.01 0.26 0.26 91 1009.5
20260906010048 75 282 0.9 6.1 0.01 0.26 0.26 91 1009.3
20260906004538 75 292 0.0 3.5 0.00 0.26 0.26 91 1009.4
20260906003038 75 292 0.0 0.0 0.00 0.26 0.26 90 1009.4
20260906001538 76 5 0.0 0.0 0.00 0.26 0.26 89 1009.1
20260906000045 76 275 0.0 1.7 0.00 0.26 0.26 89 1009.0
20260905234544 76 348 0.0 3.5 0.01 0.26 0.26 88 1009.1
20260905233043 77 328 0.9 3.5 0.01 0.26 0.26 87 1009.3
20260905231540 77 313 0.0 2.6 0.01 0.26 0.26 86 1009.2
20260905230048 78 281 1.7 4.3 0.01 0.26 0.26 84 1008.8
20260905224558 79 291 0.9 3.5 0.00 0.25 0.25 82 1009.2
20260905223041 79 257 2.6 6.1 0.01 0.25 0.25 80 1009.1
20260905221555 79 242 1.7 3.5 0.01 0.25 0.25 80 1009.2
20260905220043 79 245 2.6 4.3 0.01 0.25 0.25 80 1009.0
20260905214541 79 181 2.6 5.2 0.01 0.25 0.25 80 1008.4
20260905213039 79 217 1.7 4.3 0.01 0.24 0.24 80 1008.8
20260905211539 78 202 2.6 3.5 0.01 0.24 0.24 80 1008.9
20260905210043 78 232 0.0 1.7 0.01 0.24 0.24 82 1008.6
20260905204538 77 186 0.9 5.2 0.02 0.24 0.24 83 1008.9
20260905203056 77 219 2.6 5.2 0.01 0.22 0.22 84 1008.9
20260905201545 76 252 5.2 8.7 0.02 0.22 0.22 86 1008.7
20260905200053 76 218 6.1 8.7 0.02 0.22 0.22 85 1008.8
20260905194538 76 242 5.2 9.6 0.02 0.22 0.22 86 1008.9
20260905193042 76 245 5.2 8.7 0.02 0.22 0.22 87 1009.2
20260905191540 76 245 4.3 7.0 0.02 0.21 0.21 89 1009.3
20260905190042 75 213 3.5 7.0 0.03 0.21 0.21 91 1009.2
20260905184559 74 185 0.9 7.0 0.03 0.19 0.19 93 1009.5
20260905183043 74 250 5.2 8.7 0.04 0.19 0.19 93 1009.7
20260905181601 75 189 3.5 7.8 0.04 0.19 0.19 94 1009.5
20260905180038 73 55 0.0 0.0 0.06 0.18 0.18 93 1009.0
20260905174551 73 23 0.0 4.3 0.07 0.16 0.16 92 1008.9
20260905173042 73 144 0.9 2.6 0.12 0.14 0.14 92 1008.9
20260905171543 73 105 1.7 3.5 0.14 0.14 0.14 92 1009.3
20260905170042 73 144 1.7 4.3 0.11 0.11 0.11 90 1009.6
20260905164545 73 53 0.0 7.0 0.08 0.08 0.08 89 1010.1